Weather in Lyzyne

Ukraine / Luhansk Region     49°31′58″N   38°50′37″E
temp.,
°C
wind,
m/s
gust,
m/s
humid.,
%
clouds,
%
prec.,
mm/h
press.,
hPa
HPBL,
m
24 january, mon
mon2423:00−5ne81495100 1.2 1021617
02:00−4ne71395100 1.8 1021487
05:00−4ne61295100 1.2 1022509
08:00−5ne71292100 1.3 1023481
11:00−6ne61192100 0.0 1024484
14:00−6ne5993100 0.0 1025491
17:00−9ne499556 0.1 1025215
20:00−11nne5109668 0.1 1025190
25 january, tue
tue2523:00−11ne3696100 0.1 1026134
02:00−11ne2596100 0.1 102586
05:00−10nne3596100 0.0 1024114
08:00−9ne2395100 0.1 102498
11:00−7sse1192100 0.1 1024191
14:00−5w1292100 0.1 1023191
17:00−10nw1198100 0.0 102310
20:00−10wnw1199100 0.1 102216
26 january, wed
wed2623:00−8wsw2396100 0.0 1022112
02:00−7wsw2696100 0.1 1021178
05:00−13wsw2299100 0.0 102010
08:00−13sw2299100 0.1 102020
11:00−7sw3594100 0.1 1020266
14:00−6sw3693100 0.1 1019432
17:00−10s1198100 0.0 102014
20:00−12ssw2298100 0.1 102016
27 january, thu
thu2723:00−13sw1199100 0.0 102010
02:00−12ssw1198100 0.1 102020
05:00−10s119794 0.1 101918
08:00−10sse1196100 0.3 101938
11:00−6sw129196 0.3 1019238
14:00−6wsw2290100 0.3 1018310
17:00−11wsw119873 0.0 101810
20:00−14wsw11100100 0.1 10189
28 january, fri
fri2823:00−11sw119994 0.1 101818
02:00−16ssw2210096 0.1 101810
05:00−13sse359874 0.0 101671
08:00−9sse4109693 0.2 1015244
11:00−5s61295100 0.3 1013391
14:000ssw61498100 1.1 1010750
17:000sw61297100 1.1 1009777
20:000wsw6129783 1.6 1009655